CZ-6A DEB

Satellite information

Favourite Embed

Satellite Type and Status

DEBRISIN ORBIT

Key statistics

Satellite CZ-6A DEB at a glance.

Uptime

826

Days in orbit

Revolutions

≈ 14.3

Per day

Orbit

LEO

Low Earth Orbit

Inclination

86.0

Latest

Satellite identification and parameters

Extended collection of information and parameters for CZ-6A DEB.

Object identification

Identified? True

Debris? True

Object name: CZ-6A DEB

International designator: 2023-139E

Object number (NORAD): 57834

Object ID (CCSDS): 57834

Country: PEOPLES REPUBLIC OF CHINA (PRC)

Current information (Y/N): Y

RCS size: LARGE

Orbital parameters

Period: 100.824 minutes

Inclination: 85.9898 deg

SMA: 7175.774 km

Apoapsis: 807.13 km

Periapsis: 788.149 km

RAAN: 333.8165 deg

Eccentricy: 0.0013226

Argument of periapsis: 137.0235 deg

Mean anomaly: 223.1992 deg

Mean motion: 14.28234766 rev/day

Mean motion (dot): 0.00000646 rev/day2

B* drag term: 0.00025126838 1/REarth

Two-line elements (TLE)

Creation date: Dec. 14, 2025, 3:07 a.m.

Reference frame: TEME

Reference center: EARTH

Epoch: Dec. 13, 2025, 12:10 p.m. UTC

TLE line 0: 0 CZ-6A DEB

TLE line 1: 1 57834U 23139E 25347.50747529 .00000646 00000-0 25127-3 0 9991

TLE line 2: 2 57834 85.9898 333.8165 0013226 137.0235 223.1992 14.28234766117752

Live tracking on map

Real-time ground track for satellite CZ-6A DEB.

In-orbit conjunctions

There are no conjunctions computed for CZ-6A DEB, at the moment. Check back to stay up to date, as we update our databases every day.

Go to all conjunctions

Associated space launch

3 Chinese reconnaissance satellites of unknown purposes, officially reported as for "Electromagnetic environment probing" purposes.

CZ-6A DEB was lifted into orbit during the mission ‘Long March 6A | Yaogan 40’, on board a Long March 6A space rocket.

The launch took place on Sept. 10, 2023, 4:30 a.m. from Launch Complex 9A.

For more information about the launch, click the button.

Launch to space Long March 6A | Yaogan 40
Long March 6A | Yaogan 40

Agency: N/A

Status: Launch Successful

Launch date: Sept. 10, 2023, 4:30 a.m. UTC

Rocket: Long March 6A

Launch pad: Launch Complex 9A

Location: Taiyuan Satellite Launch Center, People's Republic of China

...

Latest news about this satellite

There are no fresh news available about this satellite. Check back as we update our databases every day.


Newsletter sign-up

Weekly statistics, charts and insights to help you stay on top of the space industry.